• In Hungary
  • List of Countries
  • For 7 days
  • Water Temperature
  • Satellite Maps
  • Weather Map
  • News
  • Weather Widgets
  • user-avatar
    Login

    Hourly Weather Albuquerque

    Today, 20 February, Tuesday

    Time Temperature Precipitation Wind Pressure Humidity
    00:00 +2°C° 0.3 mm 9 mps 626 mmHg 57%
    01:00 +1°C° 0.3 mm 8 mps 626 mmHg 55%
    02:00 0°C° 0.3 mm 7 mps 627 mmHg 52%
    03:00 +1°C° 0 mm 6 mps 627 mmHg 51%
    04:00 -1°C° 0 mm 6 mps 627 mmHg 50%
    05:00 -1°C° 0 mm 5 mps 628 mmHg 49%
    06:00 -1°C° 0 mm 5 mps 628 mmHg 49%
    07:00 -1°C° 0 mm 5 mps 628 mmHg 49%
    08:00 -1°C° 0 mm 5 mps 629 mmHg 48%
    09:00 0°C° 0 mm 5 mps 629 mmHg 45%
    10:00 +1°C° 0 mm 6 mps 629 mmHg 42%
    11:00 +2°C° 0 mm 6 mps 630 mmHg 39%
    12:00 +3°C° 0 mm 6 mps 630 mmHg 37%
    13:00 +4°C° 0 mm 6 mps 630 mmHg 35%
    14:00 +5°C° 0 mm 6 mps 630 mmHg 34%
    15:00 +5°C° 0 mm 6 mps 630 mmHg 32%
    16:00 +5°C° 0 mm 6 mps 630 mmHg 31%
    17:00 +5°C° 0 mm 6 mps 630 mmHg 29%
    18:00 +5°C° 0 mm 5 mps 631 mmHg 30%
    19:00 +4°C° 0 mm 4 mps 631 mmHg 31%
    20:00 +3°C° 0 mm 4 mps 632 mmHg 32%
    21:00 +2°C° 0 mm 3 mps 632 mmHg 33%
    22:00 +3°C° 0 mm 2 mps 632 mmHg 34%
    23:00 +2°C° 0 mm 2 mps 633 mmHg 35%

    Tomorrow, 21 February, Wednesday

    Time Temperature Precipitation Wind Pressure Humidity
    00:00 +2°C° 0 mm 2 mps 633 mmHg 35%
    01:00 +1°C° 0 mm 2 mps 633 mmHg 35%
    02:00 +2°C° 0 mm 1 mps 633 mmHg 36%
    03:00 +1°C° 0 mm 2 mps 633 mmHg 37%
    04:00 +1°C° 0 mm 2 mps 633 mmHg 38%
    05:00 -1°C° 0 mm 3 mps 633 mmHg 40%
    06:00 0°C° 0 mm 3 mps 634 mmHg 44%
    07:00 -1°C° 0 mm 4 mps 634 mmHg 47%
    08:00 -1°C° 0 mm 4 mps 634 mmHg 51%
    09:00 +1°C° 0 mm 5 mps 634 mmHg 51%
    10:00 +3°C° 0 mm 6 mps 634 mmHg 50%
    11:00 +4°C° 0 mm 7 mps 635 mmHg 49%
    12:00 +5°C° 0 mm 7 mps 634 mmHg 45%
    13:00 +7°C° 0 mm 8 mps 634 mmHg 42%
    14:00 +9°C° 0 mm 8 mps 633 mmHg 38%
    15:00 +7°C° 0 mm 9 mps 633 mmHg 40%
    16:00 +7°C° 0 mm 9 mps 633 mmHg 42%
    17:00 +7°C° 0 mm 9 mps 632 mmHg 44%
    18:00 +6°C° 0 mm 8 mps 632 mmHg 49%
    19:00 +6°C° 0 mm 7 mps 633 mmHg 53%
    20:00 +5°C° 0 mm 6 mps 633 mmHg 57%
    21:00 +6°C° 0 mm 5 mps 633 mmHg 59%
    22:00 +5°C° 0 mm 4 mps 633 mmHg 61%
    23:00 +5°C° 0 mm 3 mps 633 mmHg 62%

    Day after tomorrow, 22 February, Thursday

    Time Temperature Precipitation Wind Pressure Humidity
    00:00 +4°C° 0 mm 3 mps 633 mmHg 64%
    01:00 +4°C° 0 mm 3 mps 633 mmHg 66%
    02:00 +3°C° 0 mm 3 mps 633 mmHg 69%
    03:00 +3°C° 0 mm 3 mps 633 mmHg 69%
    04:00 +3°C° 0 mm 4 mps 632 mmHg 70%
    05:00 +1°C° 0 mm 4 mps 632 mmHg 70%
    06:00 +3°C° 0 mm 4 mps 633 mmHg 65%
    07:00 +3°C° 0 mm 4 mps 633 mmHg 59%
    08:00 +2°C° 0 mm 5 mps 633 mmHg 54%
    09:00 +5°C° 0 mm 5 mps 633 mmHg 47%
    10:00 +5°C° 0 mm 6 mps 633 mmHg 39%
    11:00 +7°C° 0 mm 6 mps 633 mmHg 32%
    12:00 +8°C° 0 mm 7 mps 633 mmHg 30%
    13:00 +9°C° 0 mm 7 mps 632 mmHg 27%
    14:00 +9°C° 0 mm 8 mps 632 mmHg 25%
    15:00 +8°C° 0 mm 9 mps 632 mmHg 24%
    16:00 +8°C° 0 mm 10 mps 632 mmHg 24%
    17:00 +8°C° 0 mm 10 mps 632 mmHg 23%
    18:00 +7°C° 0 mm 9 mps 632 mmHg 26%
    19:00 +6°C° 0 mm 7 mps 632 mmHg 30%
    20:00 +5°C° 0 mm 6 mps 633 mmHg 33%
    21:00 +5°C° 0 mm 5 mps 633 mmHg 36%
    22:00 +4°C° 0 mm 4 mps 633 mmHg 39%
    23:00 +3°C° 0 mm 3 mps 633 mmHg 42%

    23 February, Friday

    Time Temperature Precipitation Wind Pressure Humidity
    00:00 +3°C° 0 mm 3 mps 633 mmHg 45%
    01:00 +3°C° 0 mm 2 mps 633 mmHg 47%
    02:00 +3°C° 0 mm 2 mps 633 mmHg 50%
    03:00 +2°C° 0 mm 2 mps 632 mmHg 51%
    04:00 +2°C° 0 mm 2 mps 632 mmHg 52%
    05:00 +2°C° 0 mm 2 mps 632 mmHg 53%
    06:00 +2°C° 0 mm 2 mps 632 mmHg 51%
    07:00 +2°C° 0 mm 3 mps 632 mmHg 49%
    08:00 +3°C° 0 mm 3 mps 632 mmHg 47%
    09:00 +4°C° 0 mm 4 mps 632 mmHg 42%
    10:00 +6°C° 0 mm 5 mps 632 mmHg 36%
    11:00 +7°C° 0 mm 6 mps 632 mmHg 30%
    12:00 +9°C° 0 mm 8 mps 631 mmHg 26%
    13:00 +10°C° 0 mm 9 mps 631 mmHg 22%
    14:00 +11°C° 0 mm 10 mps 630 mmHg 17%
    15:00 +11°C° 0 mm 11 mps 630 mmHg 18%
    16:00 +11°C° 0 mm 11 mps 629 mmHg 18%
    17:00 +9°C° 0 mm 11 mps 629 mmHg 18%
    18:00 +8°C° 0 mm 9 mps 629 mmHg 23%
    19:00 +7°C° 0 mm 8 mps 629 mmHg 28%
    20:00 +5°C° 0 mm 6 mps 629 mmHg 32%
    21:00 +4°C° 0 mm 7 mps 629 mmHg 41%
    22:00 +1°C° 0 mm 8 mps 628 mmHg 49%
    23:00 0°C° 0 mm 9 mps 628 mmHg 57%

    24 February, Saturday

    Time Temperature Precipitation Wind Pressure Humidity
    00:00 -1°C° 0 mm 9 mps 628 mmHg 55%
    01:00 -3°C° 0 mm 9 mps 628 mmHg 53%
    02:00 -3°C° 0 mm 9 mps 628 mmHg 51%
    03:00 -4°C° 0 mm 9 mps 628 mmHg 52%
    04:00 -4°C° 0 mm 10 mps 629 mmHg 54%
    05:00 -4°C° 0 mm 10 mps 629 mmHg 55%
    06:00 -4°C° 0 mm 11 mps 630 mmHg 52%
    07:00 -4°C° 0 mm 11 mps 630 mmHg 49%
    08:00 -4°C° 0 mm 11 mps 631 mmHg 46%
    09:00 -3°C° 0 mm 12 mps 631 mmHg 41%
    10:00 -1°C° 0 mm 12 mps 631 mmHg 35%
    11:00 0°C° 0 mm 12 mps 632 mmHg 29%
    12:00 +2°C° 0 mm 12 mps 631 mmHg 27%
    13:00 +3°C° 0 mm 11 mps 631 mmHg 24%
    14:00 +3°C° 0 mm 11 mps 631 mmHg 22%
    15:00 +3°C° 0 mm 10 mps 631 mmHg 21%
    16:00 +4°C° 0 mm 8 mps 632 mmHg 21%
    17:00 +4°C° 0 mm 7 mps 632 mmHg 20%
    18:00 +3°C° 0 mm 6 mps 632 mmHg 24%
    19:00 +1°C° 0 mm 4 mps 633 mmHg 27%
    20:00 +1°C° 0 mm 3 mps 633 mmHg 31%
    21:00 +1°C° 0 mm 3 mps 633 mmHg 32%
    22:00 +1°C° 0 mm 2 mps 633 mmHg 33%
    23:00 +1°C° 0 mm 2 mps 633 mmHg 35%

    25 February, Sunday

    Time Temperature Precipitation Wind Pressure Humidity
    00:00 +1°C° 0 mm 2 mps 633 mmHg 36%
    01:00 -1°C° 0 mm 2 mps 632 mmHg 37%
    02:00 +1°C° 0 mm 1 mps 632 mmHg 38%
    03:00 +1°C° 0 mm 1 mps 631 mmHg 37%
    04:00 +1°C° 0 mm 1 mps 631 mmHg 37%
    05:00 +1°C° 0 mm 1 mps 631 mmHg 36%
    06:00 -1°C° 0 mm 2 mps 631 mmHg 33%
    07:00 +1°C° 0 mm 2 mps 631 mmHg 30%
    08:00 +2°C° 0 mm 2 mps 631 mmHg 27%
    09:00 +3°C° 0 mm 3 mps 631 mmHg 24%
    10:00 +5°C° 0 mm 4 mps 631 mmHg 21%
    11:00 +7°C° 0 mm 6 mps 630 mmHg 18%
    12:00 +9°C° 0 mm 7 mps 630 mmHg 17%
    13:00 +10°C° 0 mm 7 mps 630 mmHg 15%
    14:00 +12°C° 0 mm 8 mps 630 mmHg 14%
    15:00 +11°C° 0 mm 8 mps 630 mmHg 16%
    16:00 +11°C° 0 mm 9 mps 629 mmHg 18%
    17:00 +10°C° 0 mm 9 mps 629 mmHg 20%
    18:00 +9°C° 0 mm 7 mps 630 mmHg 24%
    19:00 +7°C° 0 mm 6 mps 630 mmHg 29%
    20:00 +5°C° 0 mm 4 mps 630 mmHg 33%
    21:00 +4°C° 0 mm 4 mps 630 mmHg 36%
    22:00 +3°C° 0 mm 3 mps 630 mmHg 38%
    23:00 +4°C° 0 mm 2 mps 630 mmHg 40%
    Show more